Date String (YYYY-MM-DD hh:mm:ss) UTC,Instrument flags,Ambient pressure (hPa),Sample flow (lpm),Bypass flow (lpm),Sample temperature (°C),Ambient temperature (°C),ASC tube jacket temperature (°C),LED temperature (°C),Box temperature (°C),Sample RH (%),Span deviation,Mass concentration (μg/m³),Mass concentration (μg/m³),Mass concentration (μg/m³)
DateTimeUTC,F1_M11,P_M11,Q1_M11,Q2_M11,T1_M11,T2_M11,T3_M11,T4_M11,T5_M11,U1_M11,ZSPAN_M11,X0_M11,X2_M11,X1_M11
2022-10-09 20:00:00,,0831.5,5.00,0.00,29.9,28.8,00.0,38.6,31.7,13.8,0000.0,0009.84,0005.58,0005.14
2022-10-09 20:01:00,,0831.5,4.99,0.00,29.9,28.8,00.0,38.6,31.8,13.9,0000.0,0009.69,0005.55,0005.14
2022-10-09 20:02:00,,0831.5,5.01,0.00,29.9,28.5,00.0,38.6,31.8,13.5,0000.0,0009.67,0005.54,0005.14
2022-10-09 20:03:00,,0831.6,5.00,0.00,29.9,26.8,00.0,38.6,31.4,13.6,0000.0,0009.74,0005.57,0005.15
2022-10-09 20:04:00,,0831.5,5.01,0.00,29.7,25.8,00.0,38.5,31.3,13.7,0000.0,0009.83,0005.59,0005.17
2022-10-09 20:05:00,,0831.5,4.99,0.00,29.7,26.0,00.0,38.4,31.2,13.8,0000.0,0010.36,0005.59,0005.18
2022-10-09 20:06:00,,0831.5,4.99,0.00,29.6,26.3,00.0,38.4,31.2,13.8,0000.0,0010.18,0005.62,0005.20
2022-10-09 20:07:00,,0831.4,4.99,0.00,29.5,26.7,00.0,38.4,31.2,13.9,0000.0,0010.04,0005.67,0005.22
2022-10-09 20:08:00,,0831.4,5.01,0.00,29.5,27.1,00.0,38.3,31.2,14.1,0000.0,0009.84,0005.70,0005.22
2022-10-09 20:09:00,,0831.4,5.00,0.00,29.5,27.4,00.0,38.3,31.3,14.2,0000.0,0009.87,0005.70,0005.22
2022-10-09 20:10:00,,0831.3,4.98,0.00,29.5,27.7,00.0,38.3,31.3,14.1,0000.0,0010.03,0005.76,0005.22
2022-10-09 20:11:00,,0831.3,5.01,0.00,29.5,27.9,00.0,38.3,31.3,14.1,-000.0,0010.80,0005.78,0005.22
2022-10-09 20:12:00,,0831.3,4.99,0.00,29.5,28.1,00.0,38.3,31.4,14.2,0000.1,0011.06,0005.79,0005.22
2022-10-09 20:13:00,,0831.2,5.01,0.00,29.5,28.2,00.0,38.3,31.4,14.3,0000.1,0011.06,0005.82,0005.24
2022-10-09 20:14:00,,0831.2,4.99,0.00,29.6,28.4,00.0,38.3,31.4,14.3,0000.2,0011.01,0005.82,0005.26
2022-10-09 20:15:00,,0831.2,5.00,0.00,29.6,28.5,00.0,38.3,31.5,14.5,0000.2,0011.14,0005.88,0005.29
2022-10-09 20:16:00,,0831.2,5.01,0.00,29.6,28.5,00.0,38.3,31.5,14.4,0000.0,0010.67,0005.91,0005.32
2022-10-09 20:17:00,,0831.1,4.99,0.00,29.7,28.6,00.0,38.3,31.6,14.3,0000.7,0010.46,0005.93,0005.33
2022-10-09 20:18:00,,0831.2,5.01,0.00,29.7,28.7,00.0,38.4,31.6,14.4,0000.6,0010.50,0005.93,0005.35
2022-10-09 20:19:00,,0831.2,5.00,0.00,29.7,28.8,00.0,38.4,31.7,14.4,0001.1,0010.45,0005.91,0005.37
2022-10-09 20:20:00,,0831.2,4.99,0.00,29.8,28.8,00.0,38.4,31.7,14.1,0000.9,0010.55,0005.97,0005.41
2022-10-09 20:21:00,,0831.2,5.01,0.00,29.8,28.9,00.0,38.4,31.8,14.2,0001.7,0010.57,0005.99,0005.44
2022-10-09 20:22:00,,0831.2,5.00,0.00,29.8,28.9,00.0,38.4,31.8,14.3,0001.0,0010.02,0006.01,0005.47
2022-10-09 20:23:00,,0831.2,4.99,0.00,29.9,29.0,00.0,38.5,31.8,14.0,0000.8,0009.78,0006.04,0005.50
2022-10-09 20:24:00,,0831.2,5.00,0.00,29.9,29.0,00.0,38.5,31.9,14.1,0000.5,0009.76,0006.05,0005.50
2022-10-09 20:25:00,,0831.2,5.01,0.00,30.0,29.1,00.0,38.5,31.9,14.1,0000.0,0010.03,0006.09,0005.51
2022-10-09 20:26:00,,0831.2,4.99,0.00,30.0,28.7,00.0,38.5,31.9,14.2,0001.4,0010.06,0006.12,0005.50
2022-10-09 20:27:00,,0831.2,4.99,0.00,30.0,27.2,00.0,38.5,31.8,14.3,0002.6,0009.80,0006.11,0005.50
2022-10-09 20:28:00,,0831.2,5.00,0.00,29.9,26.9,00.0,38.5,31.7,14.3,0002.6,0009.91,0006.14,0005.50
2022-10-09 20:29:00,,0831.2,5.00,0.00,29.8,27.1,00.0,38.5,31.5,14.4,0002.5,0009.75,0006.09,0005.49
2022-10-09 20:30:00,,0831.2,4.99,0.00,29.8,27.4,00.0,38.5,31.5,14.8,0000.4,0009.69,0006.09,0005.47
2022-10-09 20:31:00,,0831.2,4.99,0.00,29.8,27.7,00.0,38.5,31.5,14.2,0000.0,0009.59,0006.07,0005.46
2022-10-09 20:32:00,,0831.2,5.01,0.00,29.8,28.0,00.0,38.5,31.6,14.1,0000.4,0009.53,0006.05,0005.44
2022-10-09 20:33:00,,0831.1,4.99,0.00,29.8,28.1,00.0,38.5,31.6,14.2,0000.7,0009.82,0006.05,0005.43
2022-10-09 20:34:00,,0831.2,5.00,0.00,29.8,28.3,00.0,38.5,31.6,14.1,0000.0,0010.45,0006.03,0005.42
2022-10-09 20:35:00,,0831.1,5.01,0.00,29.8,28.5,00.0,38.5,31.7,14.4,0000.3,0010.83,0006.03,0005.44
2022-10-09 20:36:00,,0831.0,4.99,0.00,29.8,28.6,00.0,38.5,31.7,14.4,0000.0,0011.56,0006.03,0005.45
2022-10-09 20:37:00,,0831.1,5.01,0.00,29.9,28.7,00.0,38.5,31.8,14.3,0000.0,0011.47,0005.98,0005.46
2022-10-09 20:38:00,,0831.0,4.99,0.00,29.9,28.8,00.0,38.5,31.8,14.2,0000.0,0011.52,0005.97,0005.45
2022-10-09 20:39:00,,0831.0,4.99,0.00,29.9,28.9,00.0,38.5,31.9,14.4,0000.0,0011.59,0006.00,0005.46
2022-10-09 20:40:00,,0831.0,5.01,0.00,29.9,28.9,00.0,38.6,31.9,14.5,0000.0,0012.28,0006.04,0005.48
2022-10-09 20:41:00,,0831.0,4.99,0.00,29.9,27.7,00.0,38.6,31.7,14.3,0000.0,0012.74,0006.06,0005.51
2022-10-09 20:42:00,,0831.1,4.99,0.00,29.8,26.3,00.0,38.5,31.4,14.7,0000.0,0012.86,0006.04,0005.50
2022-10-09 20:43:00,,0831.0,5.02,0.00,29.8,26.1,00.0,38.5,31.4,14.7,0000.0,0013.17,0006.06,0005.51
2022-10-09 20:44:00,,0831.0,5.00,0.00,29.7,26.4,00.0,38.4,31.3,14.7,0000.0,0013.07,0006.06,0005.54
2022-10-09 20:45:00,,0830.9,5.00,0.00,29.6,26.8,00.0,38.4,31.3,14.7,0000.0,0012.45,0006.07,0005.55
2022-10-09 20:46:00,,0830.9,4.99,0.00,29.6,27.2,00.0,38.4,31.3,14.9,0000.0,0012.44,0006.08,0005.52
2022-10-09 20:47:00,,0830.9,5.00,0.00,29.6,27.5,00.0,38.4,31.3,14.9,0000.0,0011.51,0006.03,0005.48
2022-10-09 20:48:00,,0830.9,5.01,0.00,29.5,27.7,00.0,38.3,31.4,14.9,0000.0,0011.19,0005.99,0005.45
2022-10-09 20:49:00,,0830.9,4.99,0.00,29.6,27.9,00.0,38.3,31.4,14.7,-000.7,0011.06,0005.98,0005.42
2022-10-09 20:50:00,,0830.9,5.01,0.00,29.6,28.1,00.0,38.3,31.4,15.0,-000.8,0011.09,0005.94,0005.39
2022-10-09 20:51:00,,0830.9,4.99,0.00,29.6,28.3,00.0,38.3,31.5,14.9,-000.4,0010.57,0005.88,0005.36
2022-10-09 20:52:00,,0830.9,5.02,0.00,29.6,28.4,00.0,38.3,31.5,14.4,0000.4,0010.51,0005.85,0005.33
2022-10-09 20:53:00,,0830.9,4.99,0.00,29.7,28.5,00.0,38.4,31.6,14.7,-000.1,0010.54,0005.85,0005.30
2022-10-09 20:54:00,,0830.9,4.99,0.00,29.7,28.6,00.0,38.4,31.6,14.7,-000.2,0010.28,0005.84,0005.28
2022-10-09 20:55:00,,0830.9,5.01,0.00,29.7,28.7,00.0,38.4,31.7,14.8,-000.1,0010.34,0005.83,0005.24
2022-10-09 20:56:00,,0830.9,5.00,0.00,29.8,28.8,00.0,38.4,31.7,14.7,-000.2,0010.19,0005.77,0005.20
2022-10-09 20:57:00,,0830.9,4.99,0.00,29.8,28.8,00.0,38.4,31.7,14.8,0000.0,0009.85,0005.73,0005.19
2022-10-09 20:58:00,,0830.9,5.01,0.00,29.8,28.9,00.0,38.4,31.7,14.2,0000.3,0009.81,0005.71,0005.18
2022-10-09 20:59:00,,0830.8,5.00,0.00,29.9,28.9,00.0,38.5,31.8,14.2,0001.2,0009.86,0005.71,0005.17
